Weather History for PHNG - August, 2014

Change the Weather History Date:

Saturday, August 23, 2014

  Actual Average Record
Temperature  
Mean Temperature 78 °F -  
Max Temperature 84 °F 81 °F 86 °F (2013)
Min Temperature 73 °F 73 °F 71 °F (1996)
Cooling Degree Days 14    
Growing Degree Days 28 (Base 50)    
Moisture  
Dew Point 69 °F    
Average Humidity 75    
Maximum Humidity 92    
Minimum Humidity 59    
Precipitation  
Precipitation 0.00 in - - ()
Sea Level Pressure  
Sea Level Pressure 29.95 in    
Wind  
Wind Speed 9 mph (ENE)    
Max Wind Speed 14 mph    
Max Gust Speed 20 mph    
Visibility 8 miles    
Events      
Averages and records for this station are not official NWS values.
T = Trace of Precipitation, MM = Missing Value Source: NWS Daily Summary

Daily Weather History Graph

Daily Weather History Graph

Search for Another Location

Airport or City:

Trip Planner

Search our weather history database for the weather conditions in past years. The results will help you decide how hot, cold, wet, or windy it might be!

Date:

Astronomy

Aug. 23, 2014 Rise Set
Actual Time 6:11 AM HST 6:54 PM HST
Civil Twilight 5:49 AM HST 7:17 PM HST
Nautical Twilight 5:22 AM HST 7:44 PM HST
Astronomical Twilight 4:55 AM HST 8:11 PM HST
Moon 4:42 AM HST (8/23) 5:45 PM HST (8/23)
Length of Visible Light 13h 28m
Length of Day
12h 42m
Waning Crescent, 3% of the Moon is Illuminated
Aug 23
Waning Crescent
Aug 25
New
Sep 2
First Quarter
Sep 8
Full
Sep 15
Last Quarter

Hourly Weather History & Observations

Time (HST) Temp. Heat Index Dew Point Humidity Pressure Visibility Wind Dir Wind Speed Gust Speed Precip Events Conditions
12:57 AM 75.2 °F - 68.0 °F 78% 29.99 in 8.0 mi ENE 6.9 mph - N/A   Scattered Clouds
1:57 AM 75.2 °F - 68.0 °F 78% 29.98 in 8.0 mi ENE 8.1 mph - N/A   Partly Cloudy
2:57 AM 75.2 °F - 68.0 °F 78% 29.96 in 6.0 mi East 8.1 mph - N/A   Scattered Clouds
3:57 AM 75.2 °F - 69.1 °F 81% 29.96 in 7.0 mi East 6.9 mph - N/A   Clear
4:57 AM 73.4 °F - 66.9 °F 80% 29.96 in 10.0 mi NE 11.5 mph - N/A   Mostly Cloudy
5:57 AM 73.4 °F - 68.0 °F 83% 29.96 in 10.0 mi East 8.1 mph - N/A   Scattered Clouds
6:57 AM 75.2 °F - 69.1 °F 81% 29.97 in 8.0 mi Variable 3.5 mph - N/A   Partly Cloudy
7:57 AM 75.2 °F - 69.1 °F 81% 29.98 in 8.0 mi East 4.6 mph - N/A   Scattered Clouds
8:57 AM 78.8 °F - 70.0 °F 74% 29.98 in 8.0 mi ENE 10.4 mph - N/A   Partly Cloudy
9:57 AM 78.8 °F - 69.1 °F 72% 29.98 in 8.0 mi ENE 9.2 mph - N/A   Mostly Cloudy
10:57 AM 82.4 °F 85.4 °F 68.0 °F 62% 29.97 in 9.0 mi NE 13.8 mph 18.4 mph N/A   Overcast
11:57 AM 82.4 °F 84.8 °F 66.9 °F 59% 29.96 in 8.0 mi ENE 11.5 mph - N/A   Mostly Cloudy
12:57 PM 82.4 °F 85.8 °F 69.1 °F 64% 29.95 in 8.0 mi ENE 12.7 mph - N/A   Clear
1:57 PM 84.2 °F 87.9 °F 69.1 °F 60% 29.93 in 8.0 mi NE 10.4 mph - N/A   Partly Cloudy
2:57 PM 84.2 °F 87.9 °F 69.1 °F 60% 29.91 in 8.0 mi NE 11.5 mph - N/A   Clear
3:57 PM 80.6 °F 83.9 °F 70.0 °F 70% 29.90 in 8.0 mi NE 11.5 mph 17.3 mph N/A   Clear
4:57 PM 78.8 °F - 69.1 °F 72% 29.90 in 7.0 mi ENE 11.5 mph - N/A   Mostly Cloudy
5:57 PM 78.8 °F - 69.1 °F 72% 29.91 in 8.0 mi East 9.2 mph 19.6 mph N/A   Overcast
6:57 PM 75.2 °F - 70.0 °F 84% 29.91 in 7.0 mi ENE 4.6 mph - N/A   Clear
7:57 PM 73.4 °F - 70.0 °F 89% 29.94 in 8.0 mi ENE 8.1 mph 16.1 mph N/A   Partly Cloudy
8:57 PM - - - N/A% 29.95 in 8.0 mi East 11.5 mph 16.1 mph N/A   Clear
9:57 PM - - - N/A% 29.96 in 8.0 mi ENE 10.4 mph 17.3 mph N/A   Overcast
10:57 PM 73.4 °F - 71.1 °F 92% 29.96 in 9.0 mi NE 9.2 mph - N/A   Overcast
11:57 PM 73.4 °F - 70.0 °F 89% 29.95 in 8.0 mi ENE 8.1 mph - N/A   Overcast